[Iaude] MPEC C70: 2024 CB1 [a=1.12,e=0.49,i=15.6,H=24.1]
    mpec at cfa.harvard.edu 
    mpec at cfa.harvard.edu
       
    Tue Feb  6 22:07:14 EST 2024
    
    
  
M.P.E.C. 2024-C70                              Issued 2024 February 7, 03:03 UT
     The Minor Planet Electronic Circulars contain information on unusual
         minor planets, routine data on comets and natural satellites,
         and occasional editorial announcements.  They are published
    on behalf of Division F of the International Astronomical Union by the
          Minor Planet Center, Smithsonian Astrophysical Observatory,
                          Cambridge, MA 02138, U.S.A.
			  
             Prepared using the Tamkin Foundation Computer Network
                              MPC at CFA.HARVARD.EDU
            URL https://www.minorplanetcenter.net/    ISSN 1523-6714
                                    2024 CB1                                    
Observations:
     K24C01B* C2024 02 05.47178210 14 59.659-08 41 09.97         19.97wXEC070F52
     K24C01B  C2024 02 05.48288910 15 00.934-08 40 47.16         20.01wXEC070F52
     K24C01B  C2024 02 05.49403410 15 02.211-08 40 24.07         19.86wXEC070F52
     K24C01B  C2024 02 05.50515310 15 03.504-08 40 00.91         19.92wXEC070F52
     K24C01B  C2024 02 05.55883610 15 09.862-08 38 06.82         19.60GVEC070F52
     K24C01B  C2024 02 05.55948210 15 09.943-08 38 05.55         19.63GVEC070F52
     K24C01B KC2024 02 05.91926910 16 16.894-08 25 19.09         20.2 GVEC070M60
     K24C01B KC2024 02 05.92621410 16 17.947-08 25 03.83         20.9 GVEC070M60
     K24C01B 1C2024 02 05.93127 10 16 18.34 -08 24 59.4          20.7 VXEC070033
     K24C01B KC2024 02 05.93133210 16 18.713-08 24 50.83         20.2 GVEC070M60
     K24C01B 1C2024 02 05.93156 10 16 18.37 -08 24 58.8          20.7 VXEC070033
     K24C01B 1C2024 02 05.93184 10 16 18.43 -08 24 58.3          20.6 VXEC070033
     K24C01B  C2024 02 05.95439010 16 21.00 -08 24 01.4          18.5 GVEC070L54
     K24C01B  C2024 02 05.95994510 16 21.73 -08 23 47.3          18.6 GVEC070L54
     K24C01B  C2024 02 05.96547810 16 22.44 -08 23 34.8          18.6 GVEC070L54
     K24C01B KC2024 02 06.26699310 17 18.72 -08 10 57.0          19.4 GVEC070H21
     K24C01B KC2024 02 06.26978910 17 19.14 -08 10 49.9          19.6 GVEC070H21
     K24C01B KC2024 02 06.27268510 17 19.57 -08 10 42.5          19.5 GVEC070H21
     K24C01B KC2024 02 06.27566910 17 20.04 -08 10 34.6          19.4 GVEC070H21
     K24C01B KC2024 02 06.27892610 17 20.56 -08 10 26.1          19.3 GVEC070H21
     K24C01B KB2024 02 06.53480 10 18 16.21 -07 58 38.7          19.0 GXEC070Q06
     K24C01B KB2024 02 06.54143 10 18 17.45 -07 58 20.6          19.3 GXEC070Q06
     K24C01B KB2024 02 06.54771 10 18 18.46 -07 58 03.0          19.5 GXEC070Q06
     K24C01B KC2024 02 06.89476 10 19 33.31 -07 40 50.7          19.7 VZEC070M63
     K24C01B KC2024 02 06.91057 10 19 36.41 -07 40 01.4          19.4 VZEC070M63
     K24C01B KC2024 02 06.96777510 19 49.33 -07 37 04.1          19.8 GXEC070958
     K24C01B KC2024 02 06.97252810 19 50.28 -07 36 48.1          19.7 GXEC070958
     K24C01B KC2024 02 06.97722810 19 51.22 -07 36 33.4          19.4 GXEC070958
     K24C01B KB2024 02 06.99439 10 19 51.63 -07 35 41.5          18.9 GXEC070M45
     K24C01B KB2024 02 06.99809 10 19 52.45 -07 35 30.2          18.8 GXEC070M45
Observer details:
033 Karl Schwarzschild Observatory, Tautenburg.  Observers S. Melnikov, C.
    Hogner, F. Ludwig, M. Hartmann, B. Stecklum.  Measurer B. Stecklum.
    1.34-m f/3 Schmidt + CCD.
958 Observatoire de Dax.  Observers P. Dupouy, J. B. de Vanssay.  Measurer P.
    Dupouy.  0.43-m f/2.7 Reflector + CCD.
F52 Pan-STARRS 2, Haleakala.  Observers J. Herman, T. Lowe, P. Minguez, A.
    Schultz, I. Smith.  Measurers K. Chambers, T. de Boer, J. Fairlamb, H.
    Gao, M. Huber, C.-C. Lin, E. Magnier, Y. Ramanjooloo, R. Wainscoat, R.
    Weryk.  1.8-m Ritchey-Chretien + CCD.
H21 Astronomical Research Observatory, Westfield.  Observer R. Holmes.
    Measurers T. Linder, R. Holmes, L. Horn.  0.76-m f/3.0 astrograph + CCD.
L54 Berthelot Observatory, Hunedoara.  Observers A. Sonka, A. Nedelcu.
    Measurer A. Sonka.  0.50-m f/8 RC + CCD.
M45 Starhopper Observatory, Sfantu Gheorghe.  Observer F. Ursache.  0.41-m
    f/7.5 reflector + CMO.
M60 Virgil Observatory, Loiano.  Observer A. Carbognani.  0.3-m f/4.0
    Reflector + CCD.
M63 RPF Observatory, Gagliano del Capo.  Observer D. Licchelli.  0.30-m f/5.3
    reflector + CCD.
Q06 Tarui Observatory, Tarui.  Observer H. Watanabe.  0.35-m f/1.9 Schmidt-
    Cassegrain + CMO.
Orbital elements:
2024 CB1                                                 Earth MOID = 0.0079 AU
Epoch 2023 Sept. 13.0 TT = JDT 2460200.5                Veres                   
M 184.45442              (2000.0)            P               Q                  
n   0.82684476     Peri.  107.74789     -0.31888489     +0.93349670             
a   1.1242254      Node   142.35999     -0.93906084     -0.28774622             
e   0.4874362      Incl.   15.57781     -0.12836345     -0.21397670             
P   1.19           H   24.18          G   0.15           U   8                  
Residuals in seconds of arc
240205 F52  0.2+  0.0     240205 033  0.1+  0.1-    240206 Q06  0.4+  1.2+
240205 F52  0.1+  0.0     240205 033  0.4+  0.2-    240206 Q06  1.3+  1.0+
240205 F52  0.0   0.0     240205 L54  0.2+  1.1-    240206 Q06  0.3-  1.2+
240205 F52  0.1+  0.0     240205 L54  0.8-  0.0     240206 M63  0.5-  0.2+
240205 F52  0.2+  0.2+    240205 L54 (2.1-  0.6-)   240206 M63  0.1-  0.0
240205 F52  0.2+  0.1+    240206 H21  0.1+  0.1+    240206 958  0.4-  0.7-
240205 M60  0.6-  0.1+    240206 H21  0.0   0.0     240206 958  0.3-  0.0
240205 M60  0.2-  0.6-    240206 H21  0.3-  0.1-    240206 958  0.2-  0.4-
240205 033  0.3+  0.0     240206 H21  0.1-  0.0     240206 M45  0.1-  0.1+
240205 M60  0.0   0.6+    240206 H21  0.2+  0.1+    240206 M45  1.3+  0.8-
Ephemeris:
2024 CB1                 a,e,i = 1.12, 0.49, 16                  q = 0.5762
Date    TT    R. A. (2000) Decl.     Delta      r    Elong.  Phase     V
2024 01 08    09 49 24.6 -09 13 10   0.3916  1.2724   130.4    36.1    24.1
...
2024 01 23    09 59 25.6 -10 37 05   0.2225  1.1648   140.7    32.4    22.6
...
2024 01 31    10 05 56.6 -10 19 38   0.1373  1.1021   146.4    29.6    21.4
...
2024 02 06    10 16 27.8 -08 20 40   0.07537 1.0528   151.4    26.7    19.9
2024 02 07    10 19 53.3 -07 33 38   0.06521 1.0444   152.4    26.0    19.5
2024 02 08    10 24 29.8 -06 27 55   0.05511 1.0359   153.4    25.2    19.1
...
2024 02 14    18 16 46.6 +43 35 53   0.01192 0.9842    74.4   104.9    18.4
...
2024 02 22    21 36 30.2 +17 44 16   0.08885 0.9132    30.1   147.1    26.6
...
2024 03 08    21 52 46.2 +13 06 31   0.2508  0.7778    27.1   144.5    28.1
M. P. C. Staff               (C) Copyright 2024 MPC           M.P.E.C. 2024-C70
    
    
More information about the Iaude
mailing list